Galesburg, IL

12:17 PM CDT on September 16, 2019 (GMT -0500)
Galesburg Municipal

Weather History for KGBG - August, 2019

Change the Weather History Date:

Sunday, August 18, 2019

  Actual Average Record
Temperature  
Mean Temperature 75 °F -  
Max Temperature 84 °F 84 °F 100 °F (1983)
Min Temperature 66 °F 63 °F 47 °F (2012)
Cooling Degree Days 10    
Growing Degree Days 25 (Base 50)    
Moisture  
Dew Point 68 °F    
Average Humidity 82    
Maximum Humidity 100    
Minimum Humidity 52    
Precipitation  
Precipitation 0.01 in - - ()
Sea Level Pressure  
Sea Level Pressure 29.87 in    
Wind  
Wind Speed 6 mph (SW)    
Max Wind Speed 23 mph    
Max Gust Speed 28 mph    
Visibility 10 miles    
Events Rain , Thunderstorm    
Averages and records for this station are not official NWS values.
T = Trace of Precipitation, MM = Missing Value Source: NWS Daily Summary

Daily Weather History Graph

Daily Weather History Graph

Search for Another Location

Airport or City:

Astronomy

Aug. 18, 2019 Rise Set
Actual Time 6:14 AM CDT 7:56 PM CDT
Civil Twilight 5:45 AM CDT 8:25 PM CDT
Nautical Twilight 5:09 AM CDT 9:00 PM CDT
Astronomical Twilight 4:31 AM CDT 9:38 PM CDT
Moon 9:49 PM CDT (8/18) 9:00 AM CDT (8/18)
Length of Visible Light 14h 40m
Length of Day
13h 41m
Waning Gibbous, 91% of the Moon is Illuminated
Aug 18
Waning Gibbous
Aug 23
Last Quarter
Aug 30
New
Sep 5
First Quarter
Sep 13
Full

Hourly Weather History & Observations

Time (CDT) Temp. Heat Index Dew Point Humidity Pressure Visibility Wind Dir Wind Speed Gust Speed Precip Events Conditions
12:15 AM 69.8 °F - 69.6 °F 99% 29.86 in 10.0 mi ESE 4.6 mph - N/A   Clear
12:35 AM 70.0 °F - 69.8 °F 99% 29.86 in 10.0 mi ESE 3.5 mph - N/A   Clear
12:55 AM 70.2 °F - 70.0 °F 99% 29.85 in 10.0 mi ESE 4.6 mph - N/A   Clear
1:15 AM 70.5 °F - 70.3 °F 99% 29.84 in 10.0 mi ESE 3.5 mph - N/A   Clear
1:35 AM 70.7 °F - 70.7 °F 100% 29.84 in 10.0 mi ESE 3.5 mph - N/A Thunderstorm Scattered Clouds
1:55 AM 70.7 °F - 70.7 °F 100% 29.83 in 10.0 mi ESE 3.5 mph - N/A   Clear
2:15 AM 71.1 °F - 71.1 °F 100% 29.82 in 10.0 mi ESE 3.5 mph - N/A   Clear
2:35 AM 71.6 °F - 71.4 °F 99% 29.81 in 10.0 mi ESE 4.6 mph - N/A   Clear
2:55 AM 71.1 °F - 70.9 °F 99% 29.80 in 10.0 mi ESE 4.6 mph - N/A   Clear
3:15 AM 70.9 °F - 70.9 °F 100% 29.80 in 10.0 mi ESE 3.5 mph - N/A   Clear
3:35 AM 70.9 °F - 70.9 °F 100% 29.79 in 7.0 mi NE 5.8 mph - N/A Rain Light Rain
3:55 AM 70.9 °F - 70.9 °F 100% 29.78 in 7.0 mi ESE 3.5 mph - N/A   Scattered Clouds
4:15 AM 71.4 °F - 71.4 °F 100% 29.77 in 10.0 mi ESE 5.8 mph - N/A   Scattered Clouds
4:35 AM 72.9 °F - 72.9 °F 100% 29.77 in 10.0 mi SSE 8.1 mph - N/A   Clear
4:55 AM 73.8 °F - 73.4 °F 99% 29.78 in 10.0 mi WSW 9.2 mph 16.1 mph N/A   Clear
5:15 AM 75.0 °F - 72.5 °F 92% 29.79 in 10.0 mi WSW 10.4 mph - N/A Rain Light Rain
5:35 AM 75.2 °F - 72.1 °F 90% 29.80 in 10.0 mi SW 11.5 mph - N/A Thunderstorm Clear
5:55 AM 75.6 °F - 72.0 °F 89% 29.80 in 10.0 mi SW 10.4 mph - N/A Rain Light Rain
6:15 AM 75.4 °F - 72.0 °F 89% 29.81 in 10.0 mi SW 10.4 mph 16.1 mph N/A Rain Light Rain
6:35 AM 75.4 °F - 71.8 °F 89% 29.82 in 10.0 mi SW 12.7 mph - N/A   Overcast
6:55 AM 75.4 °F - 71.8 °F 89% 29.85 in 10.0 mi WNW 23.0 mph 27.6 mph N/A Thunderstorm Mostly Cloudy
7:15 AM 68.9 °F - 65.3 °F 88% 29.89 in 10.0 mi WNW 8.1 mph - 0.01 in Rain Rain
7:35 AM 67.8 °F - 64.8 °F 90% 29.90 in 10.0 mi WNW 8.1 mph - 0.01 in   Overcast
7:55 AM 67.1 °F - 64.4 °F 91% 29.91 in 10.0 mi WNW 6.9 mph - 0.01 in   Scattered Clouds
8:15 AM 66.7 °F - 64.2 °F 92% 29.92 in 10.0 mi WNW 5.8 mph - N/A   Mostly Cloudy
8:35 AM 67.1 °F - 64.4 °F 91% 29.92 in 10.0 mi West 5.8 mph - N/A   Scattered Clouds
8:55 AM 67.6 °F - 64.0 °F 88% 29.91 in 10.0 mi WNW 6.9 mph - N/A   Clear
9:15 AM 68.0 °F - 64.4 °F 88% 29.91 in 10.0 mi WNW 5.8 mph - N/A   Clear
9:35 AM 68.9 °F - 63.7 °F 83% 29.92 in 10.0 mi WNW 5.8 mph - N/A   Clear
9:55 AM 70.9 °F - 63.9 °F 78% 29.91 in 10.0 mi West 5.8 mph - N/A   Clear
10:15 AM 72.5 °F - 63.7 °F 74% 29.90 in 10.0 mi West 6.9 mph - N/A   Clear
10:35 AM 73.9 °F - 63.1 °F 69% 29.89 in 10.0 mi SW 9.2 mph - N/A   Clear
10:55 AM 73.4 °F - 63.7 °F 71% 29.87 in 10.0 mi WSW 9.2 mph - N/A   Clear
11:15 AM 74.3 °F - 64.4 °F 71% 29.84 in 10.0 mi WSW 9.2 mph - N/A   Clear
11:35 AM 76.3 °F - 64.9 °F 68% 29.83 in 10.0 mi ESE 9.2 mph - N/A   Clear
11:55 AM 75.6 °F - 64.8 °F 69% 29.80 in 10.0 mi ESE 12.7 mph 17.3 mph N/A   Clear
12:15 PM 75.4 °F - 64.2 °F 68% 29.82 in 10.0 mi ESE 4.6 mph 20.7 mph N/A   Clear
12:35 PM 75.9 °F - 64.9 °F 69% 29.83 in 10.0 mi South 8.1 mph - N/A   Clear
12:55 PM 75.2 °F - 65.3 °F 71% 29.83 in 10.0 mi SSE 9.2 mph - N/A   Clear
1:15 PM 76.1 °F - 66.0 °F 71% 29.85 in 10.0 mi SE 9.2 mph - N/A   Clear
1:35 PM 77.7 °F - 66.6 °F 68% 29.86 in 10.0 mi SW 10.4 mph - N/A   Clear
1:55 PM 78.1 °F - 66.7 °F 68% 29.86 in 10.0 mi WSW 10.4 mph - N/A   Clear
2:15 PM 80.8 °F 83.2 °F 66.9 °F 63% 29.88 in 10.0 mi WSW 10.4 mph - N/A   Clear
2:35 PM 81.7 °F 84.2 °F 66.9 °F 61% 29.88 in 10.0 mi SW 10.4 mph - N/A   Clear
2:55 PM 81.0 °F 83.2 °F 66.6 °F 61% 29.89 in 10.0 mi SW 9.2 mph - N/A   Clear
3:15 PM 80.8 °F 83.3 °F 67.5 °F 64% 29.88 in 10.0 mi SW 8.1 mph - N/A   Clear
3:35 PM 83.1 °F 86.1 °F 68.0 °F 60% 29.88 in 10.0 mi SW 9.2 mph - N/A   Clear
3:55 PM 83.1 °F 85.9 °F 67.3 °F 59% 29.88 in 10.0 mi SW 9.2 mph - N/A   Clear
4:35 PM 83.8 °F 86.7 °F 67.5 °F 58% 29.87 in 10.0 mi WSW 6.9 mph - N/A   Clear
4:55 PM 84.4 °F 86.1 °F 64.9 °F 52% 29.88 in 10.0 mi SW 8.1 mph - N/A   Clear
5:15 PM 84.0 °F 86.8 °F 67.3 °F 57% 29.88 in 10.0 mi SW 6.9 mph - N/A   Clear
5:35 PM 83.7 °F 86.2 °F 66.7 °F 57% 29.88 in 10.0 mi SW 5.8 mph - N/A   Clear
6:15 PM 82.9 °F 85.6 °F 67.5 °F 59% 29.87 in 10.0 mi SW 4.6 mph - N/A   Scattered Clouds
6:35 PM 83.3 °F 86.6 °F 68.7 °F 61% 29.87 in 10.0 mi WNW 5.8 mph - N/A   Mostly Cloudy
6:55 PM 80.6 °F 83.9 °F 70.0 °F 70% 29.88 in 10.0 mi Calm Calm - N/A   Scattered Clouds
7:15 PM 80.4 °F 83.0 °F 67.6 °F 65% 29.88 in 10.0 mi SW 3.5 mph - N/A   Clear
7:35 PM 78.1 °F - 68.0 °F 71% 29.89 in 10.0 mi Calm Calm - N/A   Clear
7:55 PM 74.8 °F - 68.7 °F 81% 29.89 in 10.0 mi Calm Calm - N/A   Clear
8:15 PM 72.9 °F - 68.2 °F 85% 29.90 in 10.0 mi Calm Calm - N/A   Clear
8:35 PM 72.1 °F - 67.8 °F 86% 29.90 in 10.0 mi Calm Calm - N/A   Clear
8:55 PM 72.3 °F - 68.2 °F 87% 29.91 in 10.0 mi Calm Calm - N/A   Clear
9:15 PM 71.2 °F - 68.4 °F 91% 29.92 in 10.0 mi Calm Calm - N/A   Clear
9:35 PM 70.7 °F - 68.5 °F 93% 29.92 in 10.0 mi Calm Calm - N/A   Clear
9:55 PM 71.1 °F - 66.9 °F 87% 29.93 in 10.0 mi Calm Calm - N/A   Clear
10:15 PM 71.2 °F - 66.7 °F 86% 29.93 in 10.0 mi Calm Calm - N/A   Scattered Clouds
10:35 PM 69.8 °F - 67.1 °F 91% 29.93 in 10.0 mi Calm Calm - N/A   Scattered Clouds
10:55 PM 68.4 °F - 67.5 °F 97% 29.93 in 10.0 mi Calm Calm - N/A   Clear
11:15 PM 68.9 °F - 68.9 °F 100% 29.94 in 10.0 mi Calm Calm - N/A   Clear
11:35 PM 68.0 °F - 67.6 °F 99% 29.94 in 10.0 mi Calm Calm - N/A   Clear
11:55 PM 68.0 °F - 68.0 °F 100% 29.94 in 10.0 mi Calm Calm - N/A   Clear